User: anonymous   Login
Location: Unspecified
(0.0000°N, 0.0000°E)
Time: 21:28:16
(UTC+00:00)
Language:

STARLINK-1296 - Orbit

View from above orbital plane
View from above orbital plane
View from above satellite
View from above satellite

Ground track
Ground track

The orbit is defined by the following mean orbital elements,

1 45412U          26145.33512462 +.00000000 +00000-0 +12293-2 0 00002
2 45412  53.1554 131.3881 0006379  29.0956 331.0402 15.36847023    04
Epoch (UTC): 25 May 2026 08:02:34
Eccentricity: 0.0006379
inclination: 53.1554°
perigee height: 451 km
apogee height: 460 km
right ascension of ascending node: 131.3881°
argument of perigee: 29.0956°
revolutions per day: 15.36847023
mean anomaly at epoch: 331.0402°

The dashed part of the orbit path shows where the satellite is in the earth's shadow,  

DLR